Rensselaer, IN

2:04 AM CST on February 22, 2017 (GMT -0600)
Jasper County

Weather History for KRZL - June, 2012

Change the Weather History Date:

Monday, June 25, 2012

  Actual Average (KIKK) Record (KIKK)
Temperature  
Mean Temperature 67 °F -  
Max Temperature 77 °F 84 °F 95 °F (2005)
Min Temperature 57 °F 60 °F 40 °F (1986)
Cooling Degree Days 2    
Growing Degree Days 17 (Base 50)    
Moisture  
Dew Point 51 °F    
Average Humidity 55    
Maximum Humidity 88    
Minimum Humidity 25    
Precipitation  
Precipitation 0.00 in - - ()
Sea Level Pressure  
Sea Level Pressure 30.02 in    
Wind  
Wind Speed 10 mph (North)    
Max Wind Speed 18 mph    
Max Gust Speed 22 mph    
Visibility 10 miles    
Events      
Averages and records for this station are not official NWS values.
T = Trace of Precipitation, MM = Missing Value Source: NWS Daily Summary

Daily Weather History Graph

Daily Weather History Graph

Search for Another Location

Airport or City:

Trip Planner

Search our weather history database for the weather conditions in past years. The results will help you decide how hot, cold, wet, or windy it might be!

Date:

Astronomy

Jun. 25, 2012 Rise Set
Actual Time 5:18 AM CDT 8:24 PM CDT
Civil Twilight 4:44 AM CDT 8:58 PM CDT
Nautical Twilight 4:01 AM CDT 9:41 PM CDT
Astronomical Twilight 3:10 AM CDT 10:31 PM CDT
Moon 11:30 AM CDT (6/25) 11:49 PM CDT (6/25)
Length of Visible Light 16h 13m
Length of Day
15h 06m
Waxing Crescent, 34% of the Moon is Illuminated
Jun 25
Waxing Crescent
Jun 26
First Quarter
Jul 3
Full
Jul 10
Last Quarter
Jul 18
New

Hourly Weather History & Observations

Time (CDT) Temp. Dew Point Humidity Pressure Visibility Wind Dir Wind Speed Gust Speed Precip Events Conditions
12:15 AM 73.4 °F 60.8 °F 65% 29.95 in 10.0 mi North 8.1 mph - N/A   Overcast
12:35 AM 71.6 °F 59.0 °F 64% 29.95 in 10.0 mi North 9.2 mph - N/A   Mostly Cloudy
12:55 AM 71.6 °F 59.0 °F 64% 29.95 in 10.0 mi North 9.2 mph - N/A   Mostly Cloudy
1:15 AM 71.6 °F 59.0 °F 64% 29.95 in 10.0 mi North 8.1 mph - N/A   Mostly Cloudy
1:35 AM 71.6 °F 60.8 °F 69% 29.95 in 10.0 mi North 8.1 mph - N/A   Mostly Cloudy
1:55 AM 69.8 °F 60.8 °F 73% 29.96 in 10.0 mi North 10.4 mph - N/A   Mostly Cloudy
2:15 AM 69.8 °F 60.8 °F 73% 29.96 in 10.0 mi North 10.4 mph - N/A   Mostly Cloudy
2:35 AM 69.8 °F 62.6 °F 78% 29.97 in 10.0 mi North 10.4 mph - N/A   Mostly Cloudy
2:55 AM 68.0 °F 62.6 °F 83% 29.97 in 10.0 mi North 9.2 mph - N/A   Mostly Cloudy
3:15 AM 68.0 °F 62.6 °F 83% 29.97 in 10.0 mi North 6.9 mph - N/A   Mostly Cloudy
3:35 AM 68.0 °F 62.6 °F 83% 29.97 in 10.0 mi North 8.1 mph - N/A   Overcast
3:55 AM 68.0 °F 62.6 °F 83% 29.98 in 10.0 mi North 6.9 mph - N/A   Mostly Cloudy
4:15 AM 68.0 °F 62.6 °F 83% 29.99 in 10.0 mi North 8.1 mph - N/A   Mostly Cloudy
4:35 AM 68.0 °F 62.6 °F 83% 29.99 in 10.0 mi North 10.4 mph 16.1 mph N/A   Mostly Cloudy
4:55 AM 68.0 °F 62.6 °F 83% 30.00 in 10.0 mi North 9.2 mph - N/A   Mostly Cloudy
5:15 AM 66.2 °F 62.6 °F 88% 30.00 in 10.0 mi North 8.1 mph - N/A   Scattered Clouds
5:35 AM 66.2 °F 62.6 °F 88% 30.01 in 10.0 mi North 9.2 mph - N/A   Clear
5:55 AM 64.4 °F 60.8 °F 88% 30.02 in 10.0 mi North 9.2 mph - N/A   Clear
6:15 AM 66.2 °F 59.0 °F 78% 30.03 in 10.0 mi North 10.4 mph - N/A   Scattered Clouds
6:35 AM 66.2 °F 59.0 °F 78% 30.03 in 10.0 mi North 9.2 mph - N/A   Clear
6:55 AM 66.2 °F 57.2 °F 73% 30.03 in 10.0 mi NNE 5.8 mph - N/A   Clear
7:15 AM 68.0 °F 53.6 °F 60% 30.04 in 10.0 mi NNE 13.8 mph 19.6 mph N/A   Scattered Clouds
7:35 AM 68.0 °F 51.8 °F 56% 30.04 in 10.0 mi NNE 12.7 mph 21.9 mph N/A   Mostly Cloudy
7:55 AM 68.0 °F 51.8 °F 56% 30.05 in 10.0 mi North 9.2 mph 16.1 mph N/A   Scattered Clouds
8:15 AM 68.0 °F 50.0 °F 52% 30.04 in 10.0 mi North 10.4 mph - N/A   Scattered Clouds
8:35 AM 69.8 °F 46.4 °F 43% 30.05 in 10.0 mi North 9.2 mph 16.1 mph N/A   Clear
8:55 AM 69.8 °F 42.8 °F 38% 30.06 in 10.0 mi North 12.7 mph 16.1 mph N/A   Clear
9:15 AM 69.8 °F 42.8 °F 38% 30.06 in 10.0 mi North 10.4 mph 16.1 mph N/A   Clear
9:35 AM 69.8 °F 35.6 °F 28% 30.06 in 10.0 mi North 8.1 mph - N/A   Clear
9:55 AM 71.6 °F 33.8 °F 25% 30.06 in 10.0 mi NNE 18.4 mph - N/A   Clear
10:15 AM 71.6 °F 37.4 °F 29% 30.06 in 10.0 mi North 12.7 mph 18.4 mph N/A   Clear
10:35 AM 71.6 °F 41.0 °F 33% 30.06 in 10.0 mi North 12.7 mph 18.4 mph N/A   Clear
10:55 AM 71.6 °F 41.0 °F 33% 30.06 in 10.0 mi North 13.8 mph 18.4 mph N/A   Clear
11:15 AM 73.4 °F 39.2 °F 29% 30.06 in 10.0 mi North 16.1 mph - N/A   Clear
11:35 AM 73.4 °F 39.2 °F 29% 30.06 in 10.0 mi North 6.9 mph 19.6 mph N/A   Clear
11:55 AM 73.4 °F 39.2 °F 29% 30.06 in 10.0 mi North 10.4 mph - N/A   Clear
12:15 PM 73.4 °F 37.4 °F 27% 30.06 in 10.0 mi NNE 10.4 mph 17.3 mph N/A   Clear
12:35 PM 75.2 °F 39.2 °F 27% 30.06 in 10.0 mi NNE 11.5 mph 18.4 mph N/A   Clear
12:55 PM 75.2 °F 41.0 °F 29% 30.05 in 10.0 mi North 13.8 mph - N/A   Clear
1:15 PM 77.0 °F 41.0 °F 28% 30.05 in 10.0 mi North 11.5 mph 17.3 mph N/A   Clear
1:35 PM 77.0 °F 42.8 °F 29% 30.04 in 10.0 mi North 13.8 mph 18.4 mph N/A   Clear
1:55 PM 77.0 °F 42.8 °F 29% 30.04 in 10.0 mi NNE 17.3 mph 21.9 mph N/A   Clear
2:15 PM 77.0 °F 44.6 °F 32% 30.04 in 10.0 mi North 12.7 mph 18.4 mph N/A   Clear
2:35 PM 77.0 °F 50.0 °F 39% 30.03 in 10.0 mi North 10.4 mph 17.3 mph N/A   Clear
2:55 PM 77.0 °F 50.0 °F 39% 30.03 in 10.0 mi North 8.1 mph 18.4 mph N/A   Clear
3:15 PM 77.0 °F 51.8 °F 41% 30.03 in 10.0 mi North 10.4 mph - N/A   Clear
3:35 PM 77.0 °F 51.8 °F 41% 30.02 in 10.0 mi NNE 11.5 mph 18.4 mph N/A   Clear
3:55 PM 77.0 °F 51.8 °F 41% 30.02 in 10.0 mi North 9.2 mph 17.3 mph N/A   Clear
4:15 PM 77.0 °F 53.6 °F 44% 30.02 in 10.0 mi North 10.4 mph 16.1 mph N/A   Clear
4:35 PM 75.2 °F 51.8 °F 44% 30.02 in 10.0 mi North 10.4 mph 18.4 mph N/A   Clear
4:55 PM 73.4 °F 51.8 °F 47% 30.02 in 10.0 mi North 12.7 mph 19.6 mph N/A   Clear
5:15 PM 73.4 °F 51.8 °F 47% 30.01 in 10.0 mi North 13.8 mph 17.3 mph N/A   Clear
5:35 PM 73.4 °F 50.0 °F 44% 30.01 in 10.0 mi North 10.4 mph 19.6 mph N/A   Clear
5:55 PM 71.6 °F 50.0 °F 46% 30.01 in 10.0 mi North 12.7 mph 21.9 mph N/A   Clear
6:15 PM 71.6 °F 50.0 °F 46% 30.02 in 10.0 mi North 13.8 mph 19.6 mph N/A   Clear
6:35 PM 69.8 °F 50.0 °F 49% 30.02 in 10.0 mi North 11.5 mph 21.9 mph N/A   Clear
6:55 PM 69.8 °F 50.0 °F 49% 30.02 in 10.0 mi North 13.8 mph 20.7 mph N/A   Clear
7:15 PM 68.0 °F 50.0 °F 52% 30.02 in 10.0 mi North 11.5 mph - N/A   Clear
7:35 PM 68.0 °F 50.0 °F 52% 30.03 in 10.0 mi North 10.4 mph - N/A   Clear
7:55 PM 66.2 °F 50.0 °F 56% 30.02 in 10.0 mi North 11.5 mph 16.1 mph N/A   Clear
8:15 PM 64.4 °F 50.0 °F 59% 30.03 in 10.0 mi North 12.7 mph 17.3 mph N/A   Clear
8:35 PM 64.4 °F 48.2 °F 56% 30.03 in 10.0 mi North 10.4 mph 19.6 mph N/A   Clear
8:55 PM 62.6 °F 50.0 °F 63% 30.03 in 10.0 mi North 9.2 mph - N/A   Clear
9:15 PM 62.6 °F 50.0 °F 63% 30.04 in 10.0 mi North 10.4 mph - N/A   Clear
9:35 PM 60.8 °F 50.0 °F 68% 30.04 in 10.0 mi North 8.1 mph - N/A   Clear
9:55 PM 60.8 °F 50.0 °F 68% 30.05 in 10.0 mi North 6.9 mph - N/A   Clear
10:15 PM 60.8 °F 50.0 °F 68% 30.05 in 10.0 mi North 8.1 mph - N/A   Clear
10:35 PM 60.8 °F 50.0 °F 68% 30.06 in 10.0 mi North 6.9 mph - N/A   Clear
10:55 PM 59.0 °F 51.8 °F 77% 30.06 in 10.0 mi North 4.6 mph - N/A   Clear
11:35 PM 57.2 °F 51.8 °F 82% 30.05 in 10.0 mi North 5.8 mph - N/A   Clear
11:55 PM 57.2 °F 51.8 °F 82% 30.06 in 10.0 mi North 6.9 mph - N/A   Clear